User: anonymous   Login
Location: M.A.R.S.Observatory
(35.4031°N, 81.5481°W)
Time: 18:30:26
(UTC-04:00)
Language:

SL-8 R/B - Orbit

View from above orbital plane
View from above orbital plane
View from above satellite
View from above satellite

Ground track
Ground track

The orbit data is extracted from the following two-line orbital elements,

1 33066U 08031G   17085.69169179 -.00000036 +00000-0 +26746-4 0  9998
2 33066 048.4430 136.2634 0007283 131.2394 019.2207 14.69521841470622
Epoch (UTC): 26 March 2017 16:36:02
Eccentricity: 0.0007283
inclination: 48.4430°
perigee height: 657 km
apogee height: 668 km
right ascension of ascending node: 136.2634°
argument of perigee: 131.2394°
revolutions per day: 14.69521841
mean anomaly at epoch: 19.2207°
orbit number at epoch: 47062

The dashed part of the orbit path shows where the satellite is in the earth's shadow,  

DLR